Nellis AFB, NV

2:16 PM PST on December 05, 2019 (GMT -0800)
Nellis Air Force Base

Weather History for KLSV - September, 2019

Change the Weather History Date:

Wednesday, September 11, 2019

  Actual Average Record
Temperature  
Mean Temperature 80 °F -  
Max Temperature 90 °F 94 °F 104 °F (2015)
Min Temperature 70 °F 69 °F 64 °F (2000)
Cooling Degree Days 14    
Growing Degree Days 30 (Base 50)    
Moisture  
Dew Point 31 °F    
Average Humidity 18    
Maximum Humidity 27    
Minimum Humidity 11    
Precipitation  
Precipitation 0.00 in - - ()
Sea Level Pressure  
Sea Level Pressure 29.86 in    
Wind  
Wind Speed 11 mph (SSE)    
Max Wind Speed 21 mph    
Max Gust Speed -    
Visibility 10 miles    
Events      
Averages and records for this station are not official NWS values.
T = Trace of Precipitation, MM = Missing Value Source: NWS Daily Summary

Daily Weather History Graph

Daily Weather History Graph

Search for Another Location

Airport or City:

Astronomy

Sep. 11, 2019 Rise Set
Actual Time 6:19 AM PDT 6:53 PM PDT
Civil Twilight 5:53 AM PDT 7:19 PM PDT
Nautical Twilight 5:22 AM PDT 7:49 PM PDT
Astronomical Twilight 4:51 AM PDT 8:20 PM PDT
Moon 6:02 PM PDT (9/11) 3:52 AM PDT (9/11)
Length of Visible Light 13h 25m
Length of Day
12h 34m
Waxing Gibbous, 95% of the Moon is Illuminated
Sep 11
Waxing Gibbous
Sep 13
Full
Sep 21
Last Quarter
Sep 28
New
Oct 5
First Quarter

Hourly Weather History & Observations

Time (PDT) Temp. Dew Point Humidity Pressure Visibility Wind Dir Wind Speed Gust Speed Precip Events Conditions
12:58 AM 77.9 °F 41.2 °F 27% 29.68 in 10.0 mi South 20.7 mph - N/A   Clear
1:58 AM 76.3 °F 34.7 °F 22% 29.71 in 10.0 mi SSE 17.3 mph - N/A   Clear
2:58 AM 74.7 °F 34.3 °F 23% 29.72 in 10.0 mi South 18.4 mph - N/A   Clear
3:58 AM 73.4 °F 32.2 °F 22% 29.75 in 10.0 mi South 11.5 mph - N/A   Clear
4:58 AM 71.4 °F 28.8 °F 21% 29.75 in 10.0 mi SSW 8.1 mph - N/A   Clear
6:58 AM 70.2 °F 33.6 °F 26% 29.85 in 10.0 mi South 10.4 mph - N/A   Clear
7:58 AM 72.5 °F 34.7 °F 25% 29.90 in 10.0 mi South 11.5 mph - N/A   Clear
8:58 AM 76.1 °F 34.5 °F 22% 29.92 in 10.0 mi South 5.8 mph - N/A   Clear
9:58 AM 79.2 °F 32.0 °F 18% 29.93 in 10.0 mi Calm Calm - N/A   Clear
10:58 AM 81.7 °F 31.1 °F 16% 29.94 in 10.0 mi Calm Calm - N/A   Clear
11:58 AM 83.1 °F 30.7 °F 15% 29.93 in 10.0 mi ENE 3.5 mph - N/A   Clear
1:58 PM 87.6 °F 30.7 °F 13% 29.89 in 10.0 mi ESE 4.6 mph - N/A   Clear
2:58 PM 88.7 °F 29.5 °F 12% 29.87 in 10.0 mi SSE 11.5 mph - N/A   Clear
3:58 PM 89.6 °F 30.2 °F 12% 29.86 in 10.0 mi SSW 9.2 mph - N/A   Clear
4:58 PM 89.6 °F 28.0 °F 11% 29.91 in 10.0 mi SSE 11.5 mph - N/A   Clear
5:58 PM 89.6 °F 28.0 °F 11% 29.86 in 10.0 mi Calm Calm - N/A   Clear
6:58 PM 87.4 °F 28.6 °F 12% 29.87 in 10.0 mi ENE 9.2 mph - N/A   Clear
8:58 PM 79.5 °F 27.9 °F 15% 29.91 in 10.0 mi NE 4.6 mph - N/A   Clear
9:58 PM 78.8 °F 27.1 °F 15% 29.93 in 10.0 mi NNW 4.6 mph - N/A   Clear
10:58 PM 77.0 °F 27.3 °F 16% 29.94 in 10.0 mi NNW 3.5 mph - N/A   Clear
11:58 PM 71.8 °F 26.1 °F 18% 29.96 in 10.0 mi Calm Calm - N/A   Clear